This demonstration page uses our WeatherBlox Daily Observations layout. Learn more.

Left ArrowRight Arrow

Hourly Observations for December 7, 2016

Temp ( °F °C ) Dew Point ( °F °C ) Humidity (%) Winds ( mph kmh ) Pressure ( in mb ) Visibility ( mi km ) Precip ( " mm )
12:18 am 00:18 Partly Cloudy 32 undefined 27 -3 80 80 WNW 8 13 30.09 1019 10 16 N/A
12:39 am 00:39 Partly Cloudy 30 -1 27 -3 86 86 WNW 13 20 30.09 1019 10 16 N/A
12:59 am 00:59 Clear 30 -1 25 -4 80 80 WNW 12 19 30.09 1019 10 16 N/A
1:18 am 01:18 Clear 30 -1 25 -4 80 80 WNW 9 15 30.12 1020 10 16 N/A
1:39 am 01:39 Clear 30 -1 25 -4 80 80 WNW 9 15 30.12 1020 10 16 N/A
1:59 am 01:59 Clear 28 -2 25 -4 86 86 WNW 9 15 30.12 1020 10 16 N/A
2:18 am 02:18 Clear 28 -2 23 -5 80 80 WNW 8 13 30.12 1020 10 16 N/A
2:39 am 02:39 Clear 28 -2 23 -5 80 80 WNW 7 11 30.12 1020 10 16 N/A
2:59 am 02:59 Clear 28 -2 23 -5 80 80 WNW 7 11 30.12 1020 10 16 N/A
3:18 am 03:18 Clear 28 -2 21 -6 74 74 NW 6 9 30.12 1020 10 16 N/A
3:39 am 03:39 Clear 27 -3 21 -6 80 80 WNW 6 9 30.15 1021 10 16 N/A
4:19 am 04:19 Clear 25 -4 21 -6 86 86 W 6 9 30.15 1021 10 16 N/A
4:38 am 04:38 Clear 27 -3 21 -6 80 80 WNW 3 6 30.15 1021 10 16 N/A
4:59 am 04:59 Clear 25 -4 21 -6 86 86 WNW 3 6 30.12 1020 10 16 N/A
5:19 am 05:19 Clear 27 -3 21 -6 80 80 WNW 3 6 30.12 1020 10 16 N/A
5:38 am 05:38 Clear 27 -3 21 -6 80 80 N N/A 30.12 1020 10 16 N/A
5:59 am 05:59 Clear 27 -3 21 -6 80 80 WSW 6 9 30.15 1021 10 16 N/A
6:19 am 06:19 Clear 27 -3 21 -6 80 80 SW 6 9 30.15 1021 10 16 N/A
6:38 am 06:38 Clear 27 -3 21 -6 80 80 WSW 3 6 30.15 1021 10 16 N/A
6:59 am 06:59 Clear 25 -4 21 -6 86 86 WSW 5 7 30.18 1022 10 16 N/A
7:18 am 07:18 Clear 25 -4 21 -6 86 86 WSW 5 7 30.18 1022 10 16 N/A
7:39 am 07:39 Clear 25 -4 21 -6 86 86 WSW 6 9 30.18 1022 10 16 N/A
7:59 am 07:59 Sunny 25 -4 21 -6 86 86 WSW 6 9 30.18 1022 10 16 N/A
8:18 am 08:18 Sunny 27 -3 21 -6 80 80 WSW 7 11 N/A 10 16 N/A
8:39 am 08:39 Sunny 27 -3 21 -6 80 80 SW 6 9 30.21 1023 10 16 N/A
8:59 am 08:59 Sunny 28 -2 23 -5 80 80 SW 8 13 30.21 1023 10 16 N/A
9:18 am 09:18 Sunny 28 -2 23 -5 80 80 SW 9 15 30.21 1023 10 16 N/A
9:39 am 09:39 Sunny 30 -1 23 -5 75 75 WSW 8 13 30.21 1023 10 16 N/A
9:59 am 09:59 Sunny 32 undefined 23 -5 69 69 WSW 10 17 30.21 1023 10 16 N/A
10:19 am 10:19 Sunny 32 undefined 23 -5 69 69 SW 10 17 30.21 1023 10 16 N/A
10:38 am 10:38 Partly Cloudy 32 undefined 23 -5 69 69 SW 9 15 30.21 1023 10 16 N/A
10:59 am 10:59 Mostly Cloudy 32 undefined 23 -5 69 69 SW 9 15 30.21 1023 10 16 N/A
11:19 am 11:19 Cloudy 32 undefined 23 -5 69 69 WSW 8 13 30.24 1024 10 16 N/A
11:38 am 11:38 Cloudy 32 undefined 23 -5 69 69 W 10 17 30.21 1023 10 16 N/A
11:59 am 11:59 Cloudy 34 1 23 -5 65 65 SW 7 11 30.21 1023 10 16 N/A
12:19 pm 12:19 Cloudy 34 1 23 -5 65 65 SW 8 13 30.21 1023 10 16 N/A
12:38 pm 12:38 Cloudy 34 1 23 -5 65 65 W 7 11 30.21 1023 10 16 N/A
12:59 pm 12:59 Cloudy 36 2 23 -5 60 60 W 8 13 30.21 1023 10 16 N/A
1:19 pm 13:19 Cloudy 36 2 23 -5 60 60 WSW 9 15 30.18 1022 10 16 N/A
1:38 pm 13:38 Cloudy 36 2 23 -5 60 60 WSW 7 11 30.18 1022 10 16 N/A
1:59 pm 13:59 Cloudy 36 2 21 -6 56 56 W 8 13 30.18 1022 10 16 N/A
2:19 pm 14:19 Cloudy 36 2 21 -6 56 56 W 8 13 30.18 1022 10 16 N/A
2:38 pm 14:38 Cloudy 36 2 21 -6 56 56 WSW 7 11 30.18 1022 10 16 N/A
2:59 pm 14:59 Cloudy 37 3 23 -5 56 56 WSW 8 13 30.18 1022 10 16 N/A
3:19 pm 15:19 Cloudy 37 3 23 -5 56 56 WSW 8 13 30.18 1022 10 16 N/A
3:38 pm 15:38 Mostly Cloudy 36 2 23 -5 60 60 W 10 17 30.18 1022 10 16 N/A
3:59 pm 15:59 Cloudy 36 2 23 -5 60 60 W 9 15 30.18 1022 10 16 N/A
4:19 pm 16:19 Cloudy 36 2 23 -5 60 60 W 10 17 30.18 1022 10 16 N/A
4:38 pm 16:38 Cloudy 36 2 25 -4 65 65 WSW 9 15 30.18 1022 10 16 N/A
4:59 pm 16:59 Cloudy 34 1 25 -4 70 70 WSW 9 15 30.18 1022 10 16 N/A
5:19 pm 17:19 Cloudy 34 1 21 -6 60 60 W 12 19 30.21 1023 10 16 N/A
5:38 pm 17:38 Cloudy 34 1 21 -6 60 60 W 10 17 30.21 1023 10 16 N/A
5:59 pm 17:59 Cloudy 34 1 21 -6 60 60 W 13 20 30.21 1023 10 16 N/A
6:19 pm 18:19 Cloudy 32 undefined 23 -5 69 69 WNW 6 9 30.21 1023 10 16 N/A
6:38 pm 18:38 Cloudy 32 undefined 23 -5 69 69 WNW 12 19 30.21 1023 10 16 N/A
6:59 pm 18:59 Cloudy 32 undefined 25 -4 75 75 W 9 15 30.21 1023 10 16 N/A
7:19 pm 19:19 Mostly Cloudy 32 undefined 25 -4 75 75 W 10 17 30.21 1023 10 16 N/A
7:38 pm 19:38 Cloudy 32 undefined 25 -4 75 75 W 14 22 30.21 1023 10 16 N/A
7:59 pm 19:59 Cloudy 32 undefined 23 -5 69 69 W 15 24 30.21 1023 10 16 N/A
8:19 pm 20:19 Cloudy 32 undefined 23 -5 69 69 W 13 20 30.24 1024 10 16 N/A
8:39 pm 20:39 Cloudy 32 undefined 23 -5 69 69 W 12 19 30.24 1024 10 16 N/A
8:59 pm 20:59 Mostly Cloudy 30 -1 23 -5 75 75 W 13 20 30.24 1024 10 16 N/A
9:19 pm 21:19 Partly Cloudy 30 -1 23 -5 75 75 W 12 19 30.24 1024 10 16 N/A
9:39 pm 21:39 Cloudy 30 -1 23 -5 75 75 W 10 17 30.24 1024 10 16 N/A
9:59 pm 21:59 Partly Cloudy 28 -2 21 -6 74 74 W 12 19 30.24 1024 10 16 N/A
10:18 pm 22:18 Clear 28 -2 23 -5 80 80 W 9 15 30.24 1024 10 16 N/A
10:39 pm 22:39 Clear 28 -2 23 -5 80 80 W 12 19 30.24 1024 10 16 N/A
10:59 pm 22:59 Clear 28 -2 21 -6 74 74 W 12 19 30.24 1024 10 16 N/A
11:18 pm 23:18 Clear 27 -3 21 -6 80 80 W 10 17 30.24 1024 10 16 N/A
11:39 pm 23:39 Clear 27 -3 21 -6 80 80 W 13 20 30.24 1024 10 16 N/A
11:59 pm 23:59 Clear 27 -3 21 -6 80 80 W 14 22 30.24 1024 10 16 N/A

Powered by AerisWeather